Weather Roundup
Issued by NWS Corpus Christi, TX

Home | Current Version | Previous Version | Text Only | Print | Product List | Glossary On
Versions: 1 2 3 4 5 6 7 8 9 10 11 12 13 14 15 16 17 18 19 20 21 22 23 24 25 26 27 28 29 30 31 32 33 34 35 36 37 38 39 40 41 42 43 44 45 46 47 48 49 50
000
ASUS44 KCRP 011210
HRRCRP

SOUTH TEXAS REGIONAL WEATHER ROUNDUP
NATIONAL WEATHER SERVICE CORPUS CHRISTI TX
700 AM CDT WED OCT 01 2014


TXZ229>244-011300-
...CORPUS CHRISTI AREA OBSERVATIONS...

CITY           SKY/WX    TMP DP  RH WIND       PRES   REMARKS
CORPUS CHRISTI PTCLDY    74  73  97 S5        29.79R
NAS CORPUS CHR PTCLDY    78  76  93 S5        29.79R
ROCKPORT       PTCLDY    77  75  93 SW3       29.79R
KINGSVILLE NAS PTCLDY    74  74 100 S3        29.79
ALICE          FOG       73  72  96 CALM      29.80R VSB 1
FALFURRIAS     CLOUDY    73  73 100 CALM      29.79R VSB 1/4
$$

...VICTORIA AREA OBSERVATIONS...

CITY           SKY/WX    TMP DP  RH WIND       PRES   REMARKS
VICTORIA       FOG       75  75 100 CALM      29.81R VSB 1/4
BEEVILLE       FOG       73  73 100 CALM      29.80S VSB 1/2
PLEASANTON     CLOUDY    75  73  96 SE3       29.81S
SAN ANTONIO    MOCLDY    76  70  82 S7        29.82S
$$

...LAREDO AREA OBSERVATIONS...

CITY           SKY/WX    TMP DP  RH WIND       PRES   REMARKS
LAREDO         CLEAR     75  75 100 SE7       29.81R
COTULLA        CLOUDY    75  72  90 SE6       29.80R FOG
DEL RIO        MOCLDY    72  70  93 SE9       29.78R
MCALLEN        CLEAR     75  74  96 SE3       29.78S FOG
HEBBRONVILLE   FOG       73  72  96 S5        29.81R VSB 3/4
$$

...OTHER TEXAS OBSERVATIONS...

CITY           SKY/WX    TMP DP  RH WIND       PRES   REMARKS
BROWNSVILLE    CLEAR     76  76 100 S3        29.79R
HOUSTON        PTCLDY    74  73  97 CALM      29.81S
COL. STATION   CLOUDY    75  74  96 SE5       29.82S
AUSTIN         CLOUDY    75  72  90 S5        29.81S
WACO           CLOUDY    76  70  82 S10       29.81S
FORT WORTH     PTCLDY    74  70  87 S10       29.79R
WICHITA FALLS  CLEAR     72  64  76 S12       29.74R
LUBBOCK        CLEAR     57  52  83 SW7       29.83R
EL PASO        CLEAR     66  36  32 S12       29.89R
$$

...MARINE OBSERVATIONS...

STATION/POSITION TIME  SKY/WX   TEMP    WIND        PRES    VSBY  WAVE   SWELL
                                AIR SEA DIR/SP/G                  HT/PER HT/PER
                 (UTC)          (F)     (DEG/KT/KT) (MB)    (MI)  (FT/S) (FT/S)
PORT ARANSAS     1200            79 81  230/  6/  7 1009.4R
BUOY 90 E PORT A 1200            83 83  200/ 12/ 12 1009.3R         2/ 3
BUOY 45 SE BAFFI 1200            83 83  180/ 12/ 14 1008.1R         2/ 4
BUOY 200 E PT IS 1200            84 84  200/ 14/ 16 1010.4R         2/ 4
BUOY 15 E GALVES 1200            81 81  180/  6/  6 1009.1R         2/ 4   2/ 4
$$


USA.gov is the U.S. government's official web portal to all federal, state and local government web resources and services.